Skip to main content
aboutsummaryrefslogtreecommitdiffstats
AgeCommit message (Expand)AuthorFilesLines
2020-07-24Build input for build I20200724-0600I20200724-0600Eclipse Releng Bot9-0/+0
2020-07-24Revert "Temporarily disable notarization"Lakshmi Shanmugam2-3/+3
2020-07-23Build input for build I20200723-1800I20200723-1800Eclipse Releng Bot6-0/+0
2020-07-23Temporarily disable notarizationLakshmi Shanmugam2-3/+3
2020-07-23Bug 565364 - Move SWT gerrit build to use custom docker imageSravan Kumar Lakkimsetti2-4/+6
2020-07-23Build input for build I20200723-1030I20200723-1030Eclipse Releng Bot6-0/+0
2020-07-23Bug 565364 - Move SWT gerrit build to use custom docker imageSravan Kumar Lakkimsetti6-1/+107
2020-07-23Build input for build I20200723-0620I20200723-0620Eclipse Releng Bot4-0/+0
2020-07-23Bug 565250 - Switch to use Tycho 2.0.0 snapshotAlexander Kurtakov1-6/+1
2020-07-22Build input for build I20200722-1800I20200722-1800Eclipse Releng Bot7-0/+0
2020-07-22Build input for build Y20200722-1200Y20200722-1200Eclipse Releng Bot6-0/+0
2020-07-22Build input for build I20200722-1140I20200722-1140Eclipse Releng Bot1-0/+0
2020-07-22Revert "Revert "Bug 565250 - Switch to use Tycho 2.0.0 snapshot""Alexander Kurtakov1-1/+1
2020-07-22Build input for build I20200722-0610I20200722-0610Eclipse Releng Bot10-0/+0
2020-07-22Build input for build Y20200722-0040Y20200722-0040Eclipse Releng Bot6-0/+0
2020-07-21Build input for build I20200721-1800I20200721-1800Eclipse Releng Bot2-0/+0
2020-07-21Revert "Bug 565250 - Switch to use Tycho 2.0.0 snapshot"Alexander Kurtakov1-1/+1
2020-07-21Bug 565250 - Switch to use Tycho 2.0.0 snapshotI20200721-1400Alexander Kurtakov1-1/+1
2020-07-21Build input for build I20200721-0950I20200721-0950Eclipse Releng Bot9-0/+0
2020-07-21Build input for build Y20200721-0610Y20200721-0610Eclipse Releng Bot4-0/+0
2020-07-21Bug 549585 - Contribute Chromium support to SWTSravan Kumar Lakkimsetti7-4/+39
2020-07-21Build input for build Y20200721-0450Y20200721-0450Eclipse Releng Bot7-0/+0
2020-07-21Build input for build I20200721-0130I20200721-0130Eclipse Releng Bot2-0/+0
2020-07-20Build input for build I20200720-1800I20200720-1800Eclipse Releng Bot6-0/+0
2020-07-20Bug 549585 - Contribute Chromium support to SWTSravan Kumar Lakkimsetti1-0/+1
2020-07-20Bug 565364 - Move SWT gerrit build to use custom docker imageSravan Kumar Lakkimsetti1-1/+0
2020-07-20Build input for build I20200720-0850I20200720-0850Eclipse Releng Bot4-0/+0
2020-07-20Bug 549585 - Contribute Chromium support to SWTLakshmi Shanmugam2-2/+2
2020-07-20Bug 559967 - Add org.eclipse.e4.ui.progressKarsten Thoms1-63/+23
2020-07-20Build input for build I20200720-0020I20200720-0020Eclipse Releng Bot3-0/+0
2020-07-19Build input for build I20200719-2010I20200719-2010Eclipse Releng Bot3-0/+0
2020-07-18Build input for build I20200718-1800I20200718-1800Eclipse Releng Bot6-0/+0
2020-07-18Build input for build Y20200718-1200Y20200718-1200Eclipse Releng Bot6-0/+0
2020-07-17Build input for build I20200717-1800I20200717-1800Eclipse Releng Bot8-0/+0
2020-07-16Build input for build I20200716-1800I20200716-1800Eclipse Releng Bot10-0/+0
2020-07-16Build input for build Y20200716-0820Y20200716-0820Eclipse Releng Bot7-0/+0
2020-07-15Build input for build I20200715-1800I20200715-1800Eclipse Releng Bot8-0/+0
2020-07-15Build input for build Y20200715-1200Y20200715-1200Eclipse Releng Bot8-0/+0
2020-07-15Bug 564035 - Declare Java 11 as minimal EE in .target fileMickael Istria1-12/+12
2020-07-15Bug 549585 - Contribute Chromium support to SWTLakshmi Shanmugam1-0/+4
2020-07-15Bug 564820 - Produce signed windows launcher bundles in the platform repoSravan Kumar Lakkimsetti2-7/+83
2020-07-15Bug 565215 - Update to ecf 3.14.12Alexander Kurtakov2-3/+3
2020-07-15Bug 564829 - Please install Rust on SWT build machineSravan Kumar Lakkimsetti1-0/+1
2020-07-14Build input for build I20200714-1800I20200714-1800Eclipse Releng Bot10-0/+0
2020-07-14Bug 565215 - Update to ecf 3.14.12Alexander Kurtakov1-3/+3
2020-07-13Build input for build I20200713-2230I20200713-2230Eclipse Releng Bot3-0/+0
2020-07-13Build input for build I20200713-1800I20200713-1800Eclipse Releng Bot6-0/+0
2020-07-12Build input for build I20200712-1800I20200712-1800Eclipse Releng Bot1-0/+0
2020-07-11Build input for build I20200711-1800I20200711-2250I20200711-1800Eclipse Releng Bot6-0/+0
2020-07-11Build input for build Y20200711-1200Y20200711-1200Eclipse Releng Bot6-0/+0

Back to the top